Location: Melizzano
(41.1500°N, 14.5000°E)
Time: 06:41:50
(UTC+00:00)

Cosmos 1709 Rocket - Pass Details

Date: 30 September 2021
Orbit: 947 x 1002 km, 82.9° (Epoch: 25 October)

Event Time Altitude Azimuth Distance (km) Brightness Sun altitude
Rises 01:44:49 0° 10° (N) 3,628 7.5 -35.5°
Reaches altitude 10° 01:48:47 10° 35° (NE) 2,681 7.0 -34.9°
Maximum altitude 01:51:49 14° 65° (ENE) 2,403 6.8 -34.4°
Drops below altitude 10° 01:54:52 10° 96° (E) 2,684 6.9 -33.9°
Sets 01:58:48 0° 120° (ESE) 3,635 7.3 -33.3°
